Погода в Шаранге

Россия / Нижегородская область     57°10′37″N   46°32′39″E
темп.,
°C
ветер,
м/с
пор.,
м/с
влажн.,
%
обл.,
%
осадки,
мм/ч
давл.,
гПа
погр.,
м
15 августа, пн
пн1500:00+17ссв118076 0.0 102211
03:00+15св11896 0.0 102311
06:00+17всв12851 0.0 102463
09:00+22всв22610 0.0 1024568
12:00+25св22461 0.0 10241572
15:00+25св22424 0.0 10231945
18:00+23св23590 0.0 102345
21:00+17в22700 0.0 102437
16 августа, вт
вт1600:00+15вюв22690 0.0 102520
03:00+14в11710 0.0 102611
06:00+15в22705 0.0 102663
09:00+21в235474 0.0 1026473
12:00+24вюв3344100 0.0 10261229
15:00+25вюв3342100 0.0 10251492
18:00+22в236191 0.0 102551
21:00+17вюв2271100 0.0 102527
17 августа, ср
ср1700:00+16вюв2271100 0.0 102623
03:00+15вюв227496 0.0 102535
06:00+16вюв247539 0.0 1025108
09:00+22юв345528 0.0 1025496
12:00+25юв34445 0.0 10241643
15:00+26вюв234263 0.0 10231816
18:00+23юв115813 0.0 102212
21:00+19в2265100 0.0 102317
18 августа, чт
чт1800:00+17вюв22685 0.0 102317
03:00+16в22755 0.0 102318
06:00+17в22740 0.0 102357
09:00+23в23530 0.0 1023496
12:00+26вюв33410 0.0 10231958
15:00+27вюв23390 0.0 10222114
18:00+24в24571 0.0 102266
21:00+19в22580 0.0 102324
19 августа, пт
пт1900:00+18в22650 0.0 102432
03:00+16вюв226920 0.0 102417
06:00+18в22690 0.0 102544
09:00+24в245240 0.0 1026425
12:00+27вюв234275 0.0 10261293
15:00+28вюв3437100 0.0 10252314
18:00+23ююв2552100 0.0 102697
21:00+22вюв115591 0.0 102611